Weather History for Johnstown, PA

Change the Weather History Date:

Wednesday, November 19, 2014

  Actual Average Record
Temperature  
Mean Temperature 22 °F 38 °F  
Max Temperature 34 °F 44 °F 80 °F (1958)
Min Temperature 10 °F 32 °F 10 °F (2014)
Degree Days  
Heating Degree Days 43 27  
Month to date heating degree days 534 439  
Since 1 July heating degree days 1172 1132  
Cooling Degree Days 0 0  
Month to date cooling degree days 0 0  
Year to date cooling degree days 341 382  
Moisture  
Dew Point 7 °F    
Average Humidity 65    
Maximum Humidity 83    
Minimum Humidity 46    
Precipitation  
Precipitation T in 0.13 in 2.22 in (2003)
Month to date precipitation 1.06 2.28  
Year to date precipitation 31.07 29.63  
Sea Level Pressure  
Sea Level Pressure 30.09 in    
Wind  
Wind Speed 13 mph (WSW)    
Max Wind Speed 28 mph    
Max Gust Speed 34 mph    
Visibility 7 miles    
Events Snow    
T = Trace of Precipitation, MM = Missing Value Source: NWS Daily Summary

Daily Weather History Graph

Daily Weather History Graph

Search for Another Location

Airport:

Trip Planner

Search our weather history database for the weather conditions in past years. The results will help you decide how hot, cold, wet, or windy it might be!

Date:

Astronomy

Nov. 19, 2014 Rise Set
Actual Time 7:05 AM EST 4:55 PM EST
Civil Twilight 6:36 AM EST 5:24 PM EST
Nautical Twilight 6:03 AM EST 5:57 PM EST
Astronomical Twilight 5:30 AM EST 6:30 PM EST
Moon 3:59 AM EST (11/19) 3:22 PM EST (11/19)
Length of Visible Light 10h 48m
Length of Day
9h 49m
Waning Crescent, 9% of the Moon is Illuminated
Nov 19
Waning Crescent
Nov 22
New
Nov 29
First Quarter
Dec 6
Full
Dec 14
Last Quarter

Hourly Weather History & Observations

Time (EST) Temp. Windchill Dew Point Humidity Pressure Visibility Wind Dir Wind Speed Gust Speed Precip Events Conditions
12:26 AM 12.0 °F -6.0 °F 3.9 °F 70% 30.06 in 2.5 mi West 19.6 mph 27.6 mph 0.00 in Snow Light Snow
12:50 AM 12.2 °F -4.3 °F 6.8 °F 79% 30.06 in 3.0 mi West 16.1 mph - 0.00 in Snow Light Snow
12:54 AM 12.0 °F -3.4 °F 6.1 °F 77% 30.19 in 2.5 mi West 13.8 mph - 0.00 in Snow Light Snow
1:03 AM 10.9 °F -4.7 °F 7.0 °F 84% 30.06 in 1.5 mi West 13.8 mph - 0.00 in Snow Light Snow
1:24 AM 12.0 °F -4.5 °F 7.0 °F 80% 30.06 in 2.5 mi West 16.1 mph 24.2 mph 0.00 in Snow Light Snow
1:46 AM 12.0 °F -2.7 °F 6.1 °F 77% 30.07 in 4.0 mi West 12.7 mph - 0.00 in Snow Light Snow
1:54 AM 12.0 °F -1.3 °F 6.1 °F 77% 30.20 in 4.0 mi West 10.4 mph - 0.00 in Snow Light Snow
2:27 AM 12.0 °F -4.5 °F 3.9 °F 70% 30.07 in 10.0 mi West 16.1 mph 24.2 mph 0.00 in   Overcast
2:38 AM 12.0 °F -2.0 °F 5.0 °F 73% 30.08 in 8.0 mi West 11.5 mph 24.2 mph 0.00 in Snow Light Snow
2:54 AM 12.0 °F -2.0 °F 3.9 °F 70% 30.19 in 6.0 mi West 11.5 mph 24.2 mph 0.00 in Snow Light Snow
3:42 AM 10.9 °F -2.6 °F 5.0 °F 77% 30.07 in 8.0 mi West 10.4 mph - 0.00 in Snow Light Snow
3:50 AM 10.4 °F 0.8 °F 5.0 °F 79% 30.07 in 3.0 mi West 5.8 mph 17.3 mph 0.00 in Snow Light Snow
3:54 AM 10.9 °F 0.2 °F 6.1 °F 81% 30.21 in 2.5 mi West 6.9 mph - 0.00 in Snow Light Snow
4:02 AM 10.9 °F -0.8 °F 5.0 °F 77% 30.07 in 3.0 mi WSW 8.1 mph - 0.00 in Snow Light Snow
4:54 AM 10.9 °F -4.7 °F 1.9 °F 67% 30.21 in 10.0 mi West 13.8 mph - 0.00 in   Overcast
5:13 AM 10.9 °F -2.6 °F 3.0 °F 70% 30.09 in 10.0 mi West 10.4 mph 20.7 mph N/A   Overcast
5:54 AM 10.9 °F -2.6 °F 3.9 °F 73% 30.22 in 4.0 mi West 10.4 mph - 0.00 in Snow Light Snow
6:03 AM 10.9 °F -2.6 °F 5.0 °F 77% 30.09 in 1.5 mi West 10.4 mph - 0.00 in Snow Light Snow
6:32 AM 10.9 °F -2.6 °F 5.0 °F 77% 30.09 in 3.0 mi West 10.4 mph - 0.00 in Snow Light Snow
6:43 AM 10.9 °F -2.6 °F 5.0 °F 77% 30.10 in 8.0 mi WSW 10.4 mph 18.4 mph 0.00 in Snow Light Snow
6:54 AM 10.9 °F -4.1 °F 5.0 °F 77% 30.24 in 10.0 mi WSW 12.7 mph - 0.00 in   Overcast
7:54 AM 10.9 °F -2.6 °F 5.0 °F 77% 30.25 in 8.0 mi SW 10.4 mph - 0.00 in   Overcast
8:54 AM 12.9 °F -2.2 °F 5.0 °F 71% 30.24 in 10.0 mi WSW 13.8 mph - N/A   Mostly Cloudy
9:54 AM 15.1 °F -0.6 °F 5.0 °F 64% 30.22 in 10.0 mi SW 16.1 mph - N/A   Mostly Cloudy
10:04 AM 15.1 °F -0.6 °F 3.9 °F 61% 30.09 in 10.0 mi WSW 16.1 mph - N/A   Scattered Clouds
10:14 AM 16.0 °F 2.9 °F 5.0 °F 62% 30.09 in 10.0 mi SW 11.5 mph - N/A   Mostly Cloudy
10:54 AM 18.0 °F 3.1 °F 6.1 °F 60% 30.20 in 10.0 mi SW 16.1 mph 21.9 mph N/A   Mostly Cloudy
11:05 AM 18.0 °F 6.1 °F 6.1 °F 60% 30.07 in 10.0 mi SW 10.4 mph - N/A   Scattered Clouds
11:54 AM 19.9 °F 5.7 °F 7.0 °F 57% 30.17 in 10.0 mi South 16.1 mph - N/A   Scattered Clouds
12:54 PM 21.0 °F 9.9 °F 7.0 °F 55% 30.13 in 10.0 mi South 10.4 mph - N/A   Overcast
1:54 PM 24.1 °F 12.5 °F 8.1 °F 51% 30.08 in 10.0 mi South 12.7 mph - N/A   Overcast
2:54 PM 26.1 °F 14.5 °F 9.0 °F 49% 30.01 in 10.0 mi SSE 13.8 mph - N/A   Overcast
3:54 PM 25.0 °F 11.7 °F 10.0 °F 53% 29.98 in 10.0 mi SSE 17.3 mph 25.3 mph N/A   Overcast
4:54 PM 26.1 °F 13.1 °F 9.0 °F 49% 29.96 in 10.0 mi South 17.3 mph - N/A   Overcast
5:54 PM 26.1 °F 14.5 °F 9.0 °F 49% 29.96 in 10.0 mi South 13.8 mph - N/A   Overcast
6:54 PM 27.0 °F 17.3 °F 10.0 °F 49% 29.96 in 10.0 mi South 10.4 mph - N/A   Overcast
7:54 PM 27.0 °F 17.3 °F 10.0 °F 49% 29.96 in 10.0 mi South 10.4 mph - N/A   Overcast
8:54 PM 28.9 °F 21.1 °F 12.0 °F 49% 29.94 in 10.0 mi South 8.1 mph - N/A   Overcast
9:54 PM 30.9 °F 24.3 °F 15.1 °F 52% 29.93 in 10.0 mi WSW 6.9 mph - N/A   Overcast
10:54 PM 33.1 °F 23.0 °F 17.1 °F 52% 29.92 in 10.0 mi West 15.0 mph 25.3 mph N/A   Overcast
11:54 PM 32.0 °F 20.8 °F 21.9 °F 66% 29.92 in 8.0 mi WSW 17.3 mph 28.8 mph 0.00 in Snow Light Snow